Flag for U.S.A. Weather past 2 weeks in Ocala, Florida, U.S.A.

Now
77 °F

Scattered clouds.


Feels Like: 79 °F
Forecast: 72 / 91 °F
Wind: 8 mph from North

Location: Ocala Municipal

Current Time: Jul 5, 2015 at 6:13:54 PM

Latest Report: Jul 5, 2015 at 4:50 PM


Visibility: 10 mi

Pressure: 30.15 "Hg

Humidity: 69%

Dew point: 66 °F

Location of OcalaLocation

Historic Weather in Ocala — Graph

°F

Ocala temperature yesterday

Maximum temperature yesterday: 93 °F (at 2:50 PM)
Minimum temperature yesterday: 70 °F (at 3:55 AM)
Average temperature yesterday: 74 °F

Past Weeks' High & Low Weather Summary

 TemperatureHumidityPressure
High97 °F (Jun 20, 4:50 PM)94% (Jun 21, 5:15 AM)30.19 "Hg (Jun 21, 5:15 AM)
Low70 °F (Jun 24, 4:35 AM)34% (Jun 20, 4:50 PM)29.98 "Hg (Jun 27, 4:50 PM)
Average78 °F80%30.09 "Hg
* Reported Jun 20 4:50 PM — Jul 5 4:50 PM, Ocala, Weather by CustomWeather, © 2015

Note: Actual official high and low records may vary slightly from our data, if they occured in-between our weather recording intervals... More about our weather records

Advertising

Ocala weather history for previous 24 hours

 ConditionsComfort  
Time TempWeatherWind HumidityBarometerVisibility
4:50 PM
Sun, Jul 5
77 °FScattered clouds.8 mph69%30.15 "Hg10 mi
3:51 PM77 °FScattered clouds.9 mph69%30.15 "Hg10 mi
2:50 PM88 °FThunderstorms. Partly sunny.21 mph55%30.13 "Hg6 mi
1:50 PM91 °FPartly sunny.8 mph52%30.14 "Hg10 mi
12:50 PM90 °FScattered clouds.6 mph59%30.16 "Hg10 mi
11:50 AM88 °FScattered clouds.6 mph62%30.18 "Hg10 mi
10:50 AM82 °FSunny.7 mph74%30.18 "Hg10 mi
9:50 AM82 °FSunny.7 mph74%30.19 "Hg10 mi
8:50 AM77 °FSunny.No wind79%30.18 "Hg10 mi
7:50 AM73 °FSunny.No wind83%30.18 "Hg10 mi
6:50 AM70 °FFog.No wind88%30.15 "Hg4 mi
6:35 AM70 °FClear.No wind88%30.15 "Hg2 mi
6:15 AM70 °FClear.No wind88%30.14 "Hg2 mi
5:55 AM70 °FClear.No wind88%30.13 "Hg2 mi
5:35 AM70 °FClear.No wind88%30.13 "Hg2 mi
5:15 AM70 °FClear.No wind88%30.13 "Hg2 mi
4:55 AM70 °FClear.No wind88%30.13 "Hg2 mi
4:35 AM70 °FClear.No wind88%30.13 "Hg3 mi
4:15 AM72 °FClear.No wind88%30.13 "Hg4 mi
3:55 AM70 °FClear.5 mph94%30.13 "Hg4 mi
3:35 AM70 °FClear.No wind88%30.13 "Hg5 mi
3:15 AM72 °FClear.No wind88%30.13 "Hg5 mi
2:55 AM72 °FClear.No wind88%30.14 "Hg5 mi
2:35 AM72 °FClear.No wind88%30.14 "Hg4 mi
2:15 AM72 °FClear.3 mph88%30.15 "Hg3 mi
1:55 AM72 °FClear.No wind88%30.15 "Hg2 mi
1:35 AM72 °FClear.No wind88%30.14 "Hg2 mi
1:15 AM72 °FClear.No wind94%30.15 "Hg3 mi
12:55 AM72 °FClear.No wind94%30.15 "Hg3 mi
11:35 PM
Sat, Jul 4
72 °FClear.No wind94%30.15 "Hg2 mi
11:15 PM72 °FClear.No wind94%30.15 "Hg2 mi
10:55 PM73 °FClear.No wind89%30.15 "Hg3 mi
10:35 PM72 °FClear.No wind94%30.14 "Hg3 mi
10:15 PM73 °FClear.No wind89%30.14 "Hg8 mi
9:55 PM73 °FClear.No wind89%30.14 "Hg8 mi
9:35 PM73 °FClear.No wind89%30.14 "Hg10 mi
9:15 PM73 °FSunny.No wind89%30.14 "Hg10 mi
8:55 PM73 °FSunny.No wind89%30.13 "Hg10 mi
8:35 PM73 °FSunny.No wind89%30.13 "Hg10 mi
8:15 PM73 °FSunny.No wind89%30.13 "Hg10 mi
7:55 PM75 °FSunny.No wind83%30.13 "Hg10 mi
6:50 PM73 °FPassing clouds.3 mph89%30.10 "Hg10 mi
Weather by CustomWeather, © 2015

See weather overviewHow to use our weather pages